Location: Tamazert
(32.6352°N, 5.2072°W)
Time: 03:39:54
(UTC+00:00)

Vanguard 2 Rocket - Pass Details

Date: 11 October 2022
Orbit: 555 x 3321 km, 32.9° (Epoch: 05 December)

Event Time Altitude Azimuth Distance (km) Brightness Sun altitude
Rises 02:49:16 0° 285° (WNW) 5,678 - -44.6°
Reaches altitude 10° 02:54:05 10° 277° (W) 4,172 - -43.7°
Maximum altitude 03:02:47 32° 219° (SW) 1,961 - -42.0°
Drops below altitude 10° 03:08:15 10° 157° (SSE) 2,572 - -40.9°
Sets 03:10:32 0° 146° (SE) 3,273 - -40.5°
